[[{"header":{"parameterUnit":"m.s-1","parameterCategory":1,"la1":30.2991,"la2":30.254,"lo1":-89.0895,"lo2":-89.0444,"dy":0.0017,"dx":0.0017,"nx":28,"ny":28,"refTime":"2023-10-23T09:00:00:Z","depth":0,"parameterNumber":2,"parameterNumberName":"U-component_of_WINDS"},"data":[0,0,0,0,0,0,0,0,0,0,0,0,0,0,0,0,0,0,0,0,0,0,0,0,0,0,0,0,0,0,0,0,0,0,0,0,0,0,0,0,0,0,0,0,0,0,0,0,0,0,0,0,0,0,0,0,0,0,-8.1512,-8.1512,0,-8.1531,-8.1531,-8.1531,-8.1402,-8.1398,-8.1394,-8.1391,-8.1409,-8.1412,-8.1416,0,0,0,0,0,0,0,0,0,0,0,0,0,-8.1365,-8.1368,-8.1512,-8.1512,-8.1512,-8.1531,-8.1531,-8.1531,-8.1402,-8.1398,-8.1393,-8.1389,-8.1407,-8.1412,-8.1417,0,0,0,0,0,0,0,0,0,0,0,0,0,-8.1411,-8.1369,-8.1512,-8.145,-8.1445,-8.1531,-8.1531,-8.1532,-8.1403,-8.1398,-8.1392,-8.1387,-8.1406,-8.1411,-8.1417,-8.1563,0,0,-8.1435,-8.1437,0,0,0,0,0,0,0,0,-8.1408,-8.1416,-8.1459,-8.1455,-8.1449,-8.1458,-8.1486,-8.1542,-8.1404,-8.1419,-8.1391,-8.1384,-8.1429,-8.1433,-8.1448,-8.1564,-8.1564,-8.1435,-8.1439,-8.1441,-8.1443,0,0,0,0,0,0,0,-8.1405,-8.1415,-8.1519,-8.146,-8.1454,-8.1422,-8.1422,-8.1496,-8.1455,-8.1417,-8.1408,-8.1412,-8.1426,-8.1443,-8.1448,-8.1565,-8.1435,-8.144,-8.1444,-8.1446,-8.1802,-8.1807,0,0,0,0,0,0,-8.141,-8.1413,-8.1519,-8.152,-8.1415,-8.1429,-8.143,-8.1461,-8.1453,-8.1447,-8.1417,-8.1406,-8.1436,-8.1441,-8.1448,-8.1617,-8.1441,-8.1447,-8.145,-8.1796,-8.1803,-8.1809,0,0,0,0,0,0,-8.1408,-8.1421,-8.1518,-8.1464,-8.1474,-8.1437,-8.1474,-8.1464,-8.1481,-8.1453,-8.1445,-8.1442,-8.1432,-8.144,-8.1536,-8.1616,-8.145,-8.1455,-8.1789,-8.1798,-8.1806,-8.1957,0,0,0,0,0,0,-8.1404,-8.1421,-8.1475,-8.1466,-8.1477,-8.1605,-8.1479,-8.1468,-8.1492,-8.1478,-8.1475,-8.1469,-8.1428,-8.1528,-8.1541,-8.1621,-8.1459,-8.1781,-8.1793,-8.1803,-8.1944,-8.197,-8.1992,0,0,0,0,0,-8.1399,-8.1516,-8.1478,-8.1492,-8.1544,-8.161,-8.1616,-8.1567,-8.1499,-8.1553,-8.1536,-8.1469,-8.1607,-8.1539,-8.1553,-8.1635,-8.1776,-8.1789,-8.1802,-8.1934,-8.1965,-8.1991,0,0,0,0,0,0,-8.1533,-8.1513,-8.1471,-8.1589,-8.1603,-8.1588,-8.1654,-8.1602,-8.1633,-8.1619,-8.1557,-8.1558,-8.1664,-8.166,-8.1585,-8.1777,-8.1679,-8.1696,-8.1774,-8.1803,-8.1827,-8.1823,-8.1464,0,0,0,0,0,-8.1577,-8.1632,-8.1612,-8.1718,-8.1727,-8.1691,-8.1717,-8.1679,-8.169,-8.1694,-8.1683,-8.1696,-8.1742,-8.1773,-8.1814,-8.1946,-8.1943,-8.201,-8.2034,-8.2053,-8.2067,-8.2136,-8.2165,-8.1853,-8.1853,-8.1853,0,0,-8.1666,-8.1663,-8.17,-8.1745,-8.175,-8.1808,-8.1695,-8.1761,-8.1803,-8.1704,-8.1792,-8.1787,-8.1797,-8.1912,-8.1961,-8.1911,-8.2154,-8.207,-8.2086,-8.2089,-8.2153,-8.2182,-8.2208,-8.1862,-8.1861,-8.1859,0,0,-8.1858,-8.1862,-8.195,-8.1959,-8.1971,-8.1946,-8.1969,-8.1963,-8.1955,-8.2045,-8.1971,-8.2022,-8.2103,-8.2113,-8.213,-8.2333,-8.2272,-8.2349,-8.2469,-8.2537,-8.2562,-8.2583,-8.2653,-8.2679,-8.2363,-8.2364,-8.2364,0,-8.1966,-8.2051,-8.2002,-8.2073,-8.2095,-8.2011,-8.21,-8.2111,-8.2135,-8.2152,-8.2098,-8.2199,-8.22,-8.2315,-8.2365,-8.2383,-8.2405,-8.2345,-8.2563,-8.2584,-8.2603,-8.2669,-8.2695,-8.2373,-8.2372,-8.2371,-8.237,0,-8.2184,-8.2245,-8.2315,-8.2341,-8.2372,-8.2452,-8.2415,-8.2452,-8.2414,-8.2396,-8.2489,-8.249,-8.2529,-8.2555,-8.2518,-8.2667,-8.2635,-8.2573,-8.2472,-8.2642,-8.2703,-8.2728,-8.2385,-8.2382,-8.238,-8.2377,0,0,-8.2452,-8.2456,-8.2481,-8.2493,-8.2503,-8.2548,-8.2627,-8.2667,-8.2699,-8.2721,-8.2783,-8.2857,-8.2801,-8.2819,-8.2783,-8.2844,-8.3003,-8.2774,-8.2774,-8.2814,-8.3166,-8.3208,-8.3239,-8.2966,-8.2971,-8.2975,-8.3164,0,-8.2637,-8.2768,-8.2729,-8.2862,-8.2917,-8.2842,-8.291,-8.2923,-8.2911,-8.2957,-8.2943,-8.2995,-8.2918,-8.2928,-8.2986,-8.2972,-8.3072,-8.2959,-8.3022,-8.3025,-8.3016,-8.3271,-8.3315,-8.3493,-8.3187,-8.3191,-8.3194,0,-8.2867,-8.29,-8.3038,-8.3041,-8.3062,-8.3124,-8.3159,-8.3204,-8.322,-8.3206,-8.3231,-8.3184,-8.3261,-8.3166,-8.3271,-8.3195,-8.322,-8.3218,-8.3224,-8.3223,-8.3115,-8.3272,-8.3548,-8.3573,-8.3232,-8.3229,-8.3226,0,-8.3045,-8.3124,-8.3217,-8.323,-8.3236,-8.3282,-8.3286,-8.3296,-8.3324,-8.3356,-8.3373,-8.3414,-8.3435,-8.3469,-8.3434,-8.3369,-8.3545,-8.3447,-8.3534,-8.3535,-8.3568,-8.3565,-8.3848,-8.3594,-8.3594,-8.3594,-8.3593,0,-8.3252,-8.3338,-8.3297,-8.3354,-8.345,-8.3406,-8.3502,-8.3499,-8.351,-8.3564,-8.3504,-8.3557,-8.3511,-8.3561,-8.3536,-8.3626,-8.3637,-8.3627,-8.3618,-8.3629,-8.363,-8.364,-8.3625,-8.3601,-8.3599,-8.3598,-8.3596,0,-8.3463,-8.3439,-8.3535,-8.3535,-8.3538,-8.3608,-8.3608,-8.3661,-8.3647,-8.3718,-8.3732,-8.371,-8.3765,-8.3736,-8.3793,-8.3777,-8.3892,-8.387,-8.3887,-8.3879,-8.3966,-8.3956,-8.4259,-8.4296,-8.4025,-8.4027,-8.403,0,-8.3593,-8.3658,-8.3667,-8.37,-8.3709,-8.3763,-8.3792,-8.3754,-8.3787,-8.3812,-8.3862,-8.3913,-8.395,-8.4043,-8.4032,-8.4076,-8.405,-8.4154,-8.4056,-8.4066,-8.4047,-8.4041,-8.4047,-8.4171,-8.4175,-8.4177,-8.4179,0,-8.3825,-8.3812,-8.3855,-8.3898,-8.3934,-8.3965,-8.3991,-8.4022,-8.3985,-8.4025,-8.4081,-8.4111,-8.4172,-8.4222,-8.4262,-8.4267,-8.4217,-8.4212,-8.4233,-8.4242,-8.4247,-8.4242,-8.3935,-8.4203,-8.4201,-8.4199,-8.4198,-8.4197,-8.3996,-8.4051,-8.4066,-8.4118,-8.4135,-8.4161,-8.4211,-8.4206,-8.4252,-8.4298,-8.4275,-8.4341,-8.4358,-8.4406,-8.4419,-8.447,-8.4428,-8.4461,-8.4468,-8.4475,-8.4485,-8.4246,-8.4478,-8.4477,-8.4476,-8.4476,-8.4475,0,-8.4221,-8.4229,-8.4278,-8.4317,-8.4359,-8.4314,-8.4341,-8.4378,-8.4437,-8.4458,-8.4498,-8.4565,-8.4615,-8.4611,-8.4657,-8.47,-8.4678,-8.4713,-8.4706,-8.4707,-8.4521,-8.4496,-8.4729,-8.4729,-8.4729,-8.4729,-8.4729,-8.4729,-8.4343,-8.4433,-8.4423,-8.4521,-8.4528,-8.4593,-8.4613,-8.4637,-8.4654,-8.4731,-8.4773,-8.4771,-8.4783,-8.483,-8.4875,-8.4873,-8.4891,-8.4933,-8.4922,-8.4746,-8.4721,-8.4696,-8.4672,-8.4939,-8.4939,-8.5103,-8.5104,-8.5106]},{"header":{"parameterUnit":"m.s-1","parameterCategory":1,"la1":30.2991,"la2":30.254,"lo1":-89.0895,"lo2":-89.0444,"dy":0.0017,"dx":0.0017,"nx":28,"ny":28,"refTime":"2023-10-23T09:00:00:Z","depth":0,"parameterNumber":3,"parameterNumberName":"V-component_of_WINDS"},"data":[0,0,0,0,0,0,0,0,0,0,0,0,0,0,0,0,0,0,0,0,0,0,0,0,0,0,0,0,0,0,0,0,0,0,0,0,0,0,0,0,0,0,0,0,0,0,0,0,0,0,0,0,0,0,0,0,0,0,1.4817,1.4818,0,1.494,1.4941,1.4943,1.5073,1.5074,1.5076,1.5078,1.5199,1.52,1.5202,0,0,0,0,0,0,0,0,0,0,0,0,0,1.4691,1.4693,1.4817,1.4818,1.482,1.494,1.4941,1.4943,1.5072,1.5075,1.5077,1.5079,1.5198,1.52,1.5202,0,0,0,0,0,0,0,0,0,0,0,0,0,1.4773,1.4693,1.4816,1.4899,1.4908,1.4939,1.4941,1.4943,1.5072,1.5075,1.5077,1.508,1.5198,1.52,1.5202,1.5161,0,0,1.5209,1.521,0,0,0,0,0,0,0,0,1.4768,1.4777,1.4885,1.4893,1.4903,1.4994,1.4942,1.5016,1.5071,1.5009,1.5078,1.5081,1.5128,1.5136,1.5153,1.5167,1.5172,1.5209,1.5211,1.5212,1.5212,0,0,0,0,0,0,0,1.4762,1.4773,1.4865,1.4887,1.4898,1.4929,1.4944,1.4956,1.5051,1.5015,1.5025,1.5038,1.5133,1.515,1.5157,1.5173,1.5209,1.5211,1.5213,1.5213,1.5163,1.516,0,0,0,0,0,0,1.4745,1.4767,1.4861,1.4869,1.4841,1.4929,1.4945,1.4962,1.5052,1.5068,1.5035,1.5043,1.5145,1.5154,1.5161,1.5122,1.5211,1.5214,1.5215,1.5166,1.5162,1.5159,0,0,0,0,0,0,1.4741,1.4752,1.4857,1.4821,1.4837,1.4928,1.4946,1.4963,1.498,1.5067,1.5084,1.5035,1.5148,1.5158,1.5161,1.5128,1.5215,1.5217,1.5169,1.5165,1.5161,1.504,0,0,0,0,0,0,1.4737,1.475,1.4736,1.482,1.4838,1.4854,1.4944,1.4963,1.4984,1.4996,1.5072,1.5087,1.5151,1.5157,1.5163,1.5133,1.5218,1.5172,1.5167,1.5162,1.5048,1.5033,1.502,0,0,0,0,0,1.4732,1.4695,1.4734,1.4745,1.4822,1.4852,1.4863,1.4938,1.4981,1.4968,1.5024,1.5085,1.513,1.5156,1.5165,1.5134,1.5175,1.5168,1.5162,1.5054,1.5035,1.502,0,0,0,0,0,0,1.4602,1.4707,1.4752,1.4741,1.4787,1.4874,1.4859,1.4916,1.4949,1.4959,1.5049,1.5065,1.5058,1.5096,1.5123,1.51,1.5161,1.5156,1.5076,1.5059,1.5045,1.5037,1.522,0,0,0,0,0,1.4572,1.4589,1.468,1.4661,1.4682,1.4766,1.4782,1.4837,1.4887,1.4907,1.4963,1.5009,1.5034,1.5049,1.5076,1.5054,1.5073,1.5037,1.5022,1.5011,1.5006,1.4999,1.4985,1.5139,1.514,1.514,0,0,1.451,1.457,1.4575,1.4636,1.4679,1.4694,1.4782,1.4793,1.4805,1.4908,1.4916,1.4958,1.5016,1.5006,1.5005,1.5038,1.4967,1.5003,1.4993,1.4995,1.4992,1.4977,1.4964,1.5135,1.5136,1.5137,0,0,1.4406,1.4452,1.4444,1.4485,1.4548,1.4605,1.4603,1.4682,1.4716,1.4725,1.4803,1.4818,1.4859,1.4897,1.4922,1.4835,1.4893,1.4841,1.4768,1.4761,1.4749,1.4739,1.471,1.4698,1.4836,1.4835,1.4835,0,1.4321,1.4348,1.4431,1.4439,1.4465,1.4561,1.4553,1.4588,1.4656,1.4671,1.4708,1.4763,1.4808,1.481,1.479,1.4805,1.4806,1.4833,1.4744,1.4735,1.4726,1.47,1.4688,1.4829,1.483,1.483,1.4831,0,1.4241,1.4259,1.4244,1.4311,1.4334,1.4333,1.4417,1.443,1.4483,1.4536,1.4545,1.4602,1.4645,1.4649,1.4699,1.4659,1.4678,1.4728,1.4791,1.4704,1.468,1.4671,1.4819,1.4822,1.4824,1.4825,0,0,1.4058,1.4173,1.4166,1.4199,1.4277,1.4292,1.4296,1.434,1.4351,1.4394,1.4401,1.4435,1.4482,1.451,1.4566,1.4559,1.4489,1.461,1.4613,1.4587,1.4451,1.4415,1.4402,1.4528,1.4526,1.4525,1.4447,0,1.3969,1.3985,1.406,1.4053,1.4072,1.4164,1.4168,1.4216,1.4266,1.4288,1.4343,1.4366,1.4426,1.4444,1.4441,1.4498,1.4463,1.4505,1.4535,1.4535,1.452,1.4389,1.435,1.4274,1.4439,1.4437,1.4436,0,1.3867,1.3908,1.3903,1.3985,1.3995,1.3997,1.4045,1.4065,1.4121,1.4158,1.4191,1.4254,1.4264,1.4323,1.4338,1.4365,1.4382,1.4412,1.4411,1.4417,1.4481,1.4394,1.4251,1.4241,1.4422,1.4423,1.4424,0,1.3737,1.379,1.3796,1.382,1.3914,1.3914,1.3952,1.4012,1.4035,1.4075,1.4091,1.4131,1.4154,1.4183,1.4256,1.4292,1.4264,1.4328,1.4295,1.4293,1.4286,1.4286,1.4146,1.4294,1.4294,1.4294,1.4294,0,1.3631,1.3625,1.3739,1.3742,1.3739,1.3826,1.382,1.3867,1.392,1.3934,1.4015,1.4026,1.4121,1.4142,1.4199,1.4205,1.4213,1.4243,1.4259,1.4237,1.4234,1.4251,1.4259,1.4291,1.4292,1.4292,1.4293,0,1.3485,1.3561,1.3574,1.3662,1.3684,1.3678,1.3754,1.376,1.3815,1.3832,1.3841,1.3927,1.3957,1.4033,1.4082,1.412,1.4111,1.4138,1.4092,1.4103,1.4067,1.407,1.3934,1.3921,1.4074,1.4073,1.4071,0,1.3413,1.3412,1.3501,1.3517,1.3554,1.3578,1.3602,1.3687,1.3709,1.3775,1.3774,1.3811,1.3845,1.3889,1.3956,1.3994,1.4024,1.3974,1.403,1.401,1.4026,1.4026,1.4028,1.3962,1.396,1.3958,1.3957,0,1.3279,1.3318,1.335,1.3396,1.3423,1.3462,1.3507,1.3515,1.3611,1.3631,1.3664,1.3691,1.3743,1.3779,1.3829,1.3868,1.3928,1.3938,1.3933,1.3912,1.3887,1.3903,1.4061,1.3941,1.3943,1.3944,1.3945,1.3945,1.317,1.3174,1.3239,1.3272,1.3315,1.3355,1.3367,1.3424,1.3454,1.3505,1.3552,1.3581,1.364,1.3713,1.3748,1.3772,1.3803,1.3794,1.3793,1.379,1.3781,1.3882,1.378,1.3781,1.3781,1.3782,1.3782,0,1.3043,1.3089,1.3119,1.318,1.3207,1.3263,1.3315,1.3333,1.3358,1.3409,1.3442,1.3481,1.3517,1.3587,1.3629,1.3634,1.3663,1.3643,1.3644,1.3653,1.375,1.3751,1.3619,1.3619,1.3619,1.3619,1.3619,1.3619,1.2979,1.299,1.3036,1.3069,1.3115,1.3145,1.3171,1.3208,1.3249,1.329,1.3321,1.3367,1.3425,1.3473,1.3509,1.3528,1.3541,1.3512,1.354,1.363,1.3645,1.366,1.3662,1.3513,1.3513,1.3442,1.3441,1.3441]}]]